Flag for U.S.A. Weather past 2 weeks in Daly City, California, U.S.A.

Now
59 °F

Passing clouds.


Feels Like: 56 °F
Forecast: 56 / 71 °F
Wind: 15 mph from West

Location: San Francisco International Airport

Current Time: Jun 29, 2015 at 9:41:03 PM

Latest Report: Jun 29, 2015 at 8:56 PM


Visibility: 10 mi

Pressure: 29.93 "Hg

Humidity: 84%

Dew point: 54 °F

Location of Daly CityLocation

Historic Weather in Daly City — Graph

°F

Daly City temperature yesterday

Maximum temperature yesterday: 71 °F (at 1:56 PM)
Minimum temperature yesterday: 59 °F (at 11:56 PM)
Average temperature yesterday: 64 °F

Past Weeks' High & Low Weather Summary

 TemperatureHumidityPressure
High76 °F (Jun 25, 1:56 PM)93% (Jun 20, 6:56 AM)30.07 "Hg (Jun 20, 6:56 AM)
Low51 °F (Jun 19, 4:56 AM)44% (Jun 18, 5:56 PM)29.83 "Hg (Jun 14, 7:56 PM)
Average61 °F72%29.96 "Hg
* Reported Jun 14 7:56 PM — Jun 29 7:56 PM, Daly City, Weather by CustomWeather, © 2015

Note: Actual official high and low records may vary slightly from our data, if they occured in-between our weather recording intervals... More about our weather records

Advertising

Daly City weather history for previous 24 hours

 ConditionsComfort  
Time TempWeatherWind HumidityBarometerVisibility
7:56 PM
Mon, Jun 29
60 °FPassing clouds.22 mph80%29.93 "Hg10 mi
6:56 PM64 °FPassing clouds.18 mph70%29.93 "Hg10 mi
5:56 PM66 °FPassing clouds.24 mph65%29.93 "Hg10 mi
4:56 PM68 °FPassing clouds.25 mph61%29.93 "Hg10 mi
3:56 PM68 °FPassing clouds.25 mph61%29.95 "Hg10 mi
2:56 PM68 °FPassing clouds.22 mph61%29.97 "Hg10 mi
1:56 PM67 °FScattered clouds.21 mph63%29.99 "Hg10 mi
12:56 PM67 °FScattered clouds.20 mph63%30.00 "Hg10 mi
11:56 AM65 °FScattered clouds.16 mph68%30.01 "Hg10 mi
10:56 AM65 °FScattered clouds.15 mph68%30.02 "Hg10 mi
9:56 AM62 °FBroken clouds.13 mph73%30.03 "Hg10 mi
8:56 AM57 °FLow clouds.7 mph87%30.03 "Hg10 mi
7:56 AM57 °FLow clouds.5 mph87%30.02 "Hg10 mi
6:56 AM57 °FLow clouds.7 mph90%30.02 "Hg10 mi
5:56 AM57 °FMostly cloudy.9 mph87%30.01 "Hg10 mi
4:56 AM57 °FMostly cloudy.10 mph87%30.00 "Hg10 mi
3:56 AM58 °FLow clouds.12 mph84%30.00 "Hg10 mi
2:56 AM58 °FPartly cloudy.14 mph81%30.01 "Hg10 mi
1:56 AM59 °FMostly cloudy.15 mph81%30.01 "Hg10 mi
12:56 AM59 °FPassing clouds.15 mph84%30.01 "Hg10 mi
11:56 PM
Sun, Jun 28
59 °FPassing clouds.9 mph87%30.02 "Hg10 mi
10:56 PM60 °FPassing clouds.15 mph86%30.01 "Hg10 mi
9:56 PM60 °FPassing clouds.15 mph83%30.00 "Hg10 mi
Weather by CustomWeather, © 2015

See weather overviewHow to use our weather pages